contact:dominique.lefevre@mio.osupytheas.fr, maurice.libes@osupytheas.fr, didier.mallarino@osupytheas.fr
Project:EMSO http://www.emso-fr.org/EMSO-France
Depth: 2436.0 m
Title:EMSO Ligure Ouest : Data MII capteur MICROCAT
DateTime_Computer,Latitude,Longitude,Temperature,Conductivity,Pressure,DateTime_Instrument
DateTime_Computer,Latitude,Longitude,degC,S m-1,dbar,DateTime_Instrument
2023-06-26T00:01:31Z,42.805,6.029,13.3029,4.60110,2470.763,2023-6-26T02:03:46Z
2023-06-26T00:04:35Z,42.805,6.029,13.3024,4.60133,2470.777,2023-6-26T02:06:50Z
2023-06-26T00:07:38Z,42.805,6.029,13.3024,4.60117,2470.763,2023-6-26T02:09:53Z
2023-06-26T00:10:41Z,42.805,6.029,13.3026,4.60135,2470.763,2023-6-26T02:12:56Z
2023-06-26T00:13:44Z,42.805,6.029,13.3019,4.60139,2470.8,2023-6-26T02:15:59Z
2023-06-26T00:16:47Z,42.805,6.029,13.3023,4.60125,2470.763,2023-6-26T02:19:02Z
2023-06-26T00:19:50Z,42.805,6.029,13.3023,4.60122,2470.8,2023-6-26T02:22:05Z
2023-06-26T00:22:53Z,42.805,6.029,13.3025,4.60120,2470.787,2023-6-26T02:25:08Z
2023-06-26T00:25:56Z,42.805,6.029,13.3024,4.60102,2470.787,2023-6-26T02:28:11Z
2023-06-26T00:28:59Z,42.805,6.029,13.3027,4.60099,2470.787,2023-6-26T02:31:14Z
2023-06-26T00:32:02Z,42.805,6.029,13.3021,4.60122,2470.787,2023-6-26T02:34:17Z
2023-06-26T00:35:05Z,42.805,6.029,13.3022,4.60130,2470.763,2023-6-26T02:37:20Z
2023-06-26T00:38:08Z,42.805,6.029,13.3025,4.60138,2470.81,2023-6-26T02:40:23Z
2023-06-26T00:41:12Z,42.805,6.029,13.3026,4.60116,2470.8,2023-6-26T02:43:27Z
2023-06-26T00:44:15Z,42.805,6.029,13.3021,4.60119,2470.81,2023-6-26T02:46:30Z
2023-06-26T00:47:18Z,42.805,6.029,13.3020,4.60114,2470.8,2023-6-26T02:49:33Z
2023-06-26T00:50:21Z,42.805,6.029,13.3022,4.60108,2470.763,2023-6-26T02:52:36Z
2023-06-26T00:53:24Z,42.805,6.029,13.3016,4.60108,2470.763,2023-6-26T02:55:39Z
2023-06-26T00:56:27Z,42.805,6.029,13.3021,4.60096,2470.763,2023-6-26T02:58:42Z
2023-06-26T00:59:30Z,42.805,6.029,13.3024,4.60110,2470.8,2023-6-26T03:01:45Z
2023-06-26T01:02:33Z,42.805,6.029,13.3021,4.60122,2470.763,2023-6-26T03:04:48Z
2023-06-26T01:05:36Z,42.805,6.029,13.3024,4.60093,2470.787,2023-6-26T03:07:51Z
2023-06-26T01:08:39Z,42.805,6.029,13.3024,4.60146,2470.787,2023-6-26T03:10:54Z
2023-06-26T01:11:42Z,42.805,6.029,13.3023,4.60140,2470.777,2023-6-26T03:13:57Z
2023-06-26T01:14:45Z,42.805,6.029,13.3025,4.60122,2470.777,2023-6-26T03:17:00Z
2023-06-26T01:17:49Z,42.805,6.029,13.3024,4.60110,2470.8,2023-6-26T03:20:04Z
2023-06-26T01:20:52Z,42.805,6.029,13.3021,4.60110,2470.763,2023-6-26T03:23:07Z
2023-06-26T01:23:55Z,42.805,6.029,13.3024,4.60115,2470.787,2023-6-26T03:26:10Z
2023-06-26T01:26:58Z,42.805,6.029,13.3019,4.60115,2470.81,2023-6-26T03:29:13Z
2023-06-26T01:30:01Z,42.805,6.029,13.3021,4.60117,2470.787,2023-6-26T03:32:16Z
2023-06-26T01:33:04Z,42.805,6.029,13.3022,4.60107,2470.787,2023-6-26T03:35:19Z
2023-06-26T01:36:07Z,42.805,6.029,13.3024,4.60109,2470.763,2023-6-26T03:38:22Z
2023-06-26T01:39:10Z,42.805,6.029,13.3019,4.60107,2470.74,2023-6-26T03:41:25Z
2023-06-26T01:42:13Z,42.805,6.029,13.3023,4.60112,2470.763,2023-6-26T03:44:28Z
2023-06-26T01:45:16Z,42.805,6.029,13.3022,4.60113,2470.8,2023-6-26T03:47:31Z
2023-06-26T01:48:19Z,42.805,6.029,13.3021,4.60107,2470.777,2023-6-26T03:50:34Z
2023-06-26T01:51:22Z,42.805,6.029,13.3021,4.60105,2470.763,2023-6-26T03:53:37Z
2023-06-26T01:54:26Z,42.805,6.029,13.3019,4.60110,2470.763,2023-6-26T03:56:41Z
2023-06-26T01:57:29Z,42.805,6.029,13.3019,4.60094,2470.74,2023-6-26T03:59:44Z
2023-06-26T02:00:32Z,42.805,6.029,13.3019,4.60108,2470.787,2023-6-26T04:02:47Z
2023-06-26T02:03:35Z,42.805,6.029,13.3024,4.60117,2470.754,2023-6-26T04:05:50Z
2023-06-26T02:06:38Z,42.805,6.029,13.3019,4.60125,2470.74,2023-6-26T04:08:53Z
2023-06-26T02:09:41Z,42.805,6.029,13.3018,4.60125,2470.763,2023-6-26T04:11:56Z
2023-06-26T02:12:44Z,42.805,6.029,13.3021,4.60125,2470.74,2023-6-26T04:14:59Z
2023-06-26T02:15:47Z,42.805,6.029,13.3022,4.60127,2470.754,2023-6-26T04:18:02Z
2023-06-26T02:18:50Z,42.805,6.029,13.3020,4.60115,2470.74,2023-6-26T04:21:05Z
2023-06-26T02:21:53Z,42.805,6.029,13.3019,4.60119,2470.754,2023-6-26T04:24:08Z
2023-06-26T02:24:56Z,42.805,6.029,13.3022,4.60110,2470.74,2023-6-26T04:27:11Z
2023-06-26T02:27:59Z,42.805,6.029,13.3022,4.60127,2470.763,2023-6-26T04:30:15Z
2023-06-26T02:31:03Z,42.805,6.029,13.3024,4.60159,2470.754,2023-6-26T04:33:18Z
2023-06-26T02:34:06Z,42.805,6.029,13.3024,4.60119,2470.763,2023-6-26T04:36:21Z
2023-06-26T02:37:09Z,42.805,6.029,13.3023,4.60131,2470.763,2023-6-26T04:39:24Z
2023-06-26T02:40:12Z,42.805,6.029,13.3023,4.60114,2470.763,2023-6-26T04:42:27Z
2023-06-26T02:43:15Z,42.805,6.029,13.3019,4.60126,2470.763,2023-6-26T04:45:30Z
2023-06-26T02:46:18Z,42.805,6.029,13.3020,4.60119,2470.787,2023-6-26T04:48:33Z
2023-06-26T02:49:21Z,42.805,6.029,13.3024,4.60105,2470.74,2023-6-26T04:51:36Z
2023-06-26T02:52:24Z,42.805,6.029,13.3024,4.60099,2470.763,2023-6-26T04:54:39Z
2023-06-26T02:55:27Z,42.805,6.029,13.3025,4.60109,2470.74,2023-6-26T04:57:42Z
2023-06-26T02:58:30Z,42.805,6.029,13.3023,4.60097,2470.777,2023-6-26T05:00:45Z
2023-06-26T03:01:33Z,42.805,6.029,13.3022,4.60099,2470.754,2023-6-26T05:03:48Z
2023-06-26T03:04:36Z,42.805,6.029,13.3022,4.60097,2470.74,2023-6-26T05:06:52Z
2023-06-26T03:07:40Z,42.805,6.029,13.3024,4.60108,2470.763,2023-6-26T05:09:55Z
2023-06-26T03:10:43Z,42.805,6.029,13.3021,4.60113,2470.73,2023-6-26T05:12:58Z
2023-06-26T03:13:46Z,42.805,6.029,13.3021,4.60102,2470.754,2023-6-26T05:16:01Z
2023-06-26T03:16:49Z,42.805,6.029,13.3024,4.60099,2470.777,2023-6-26T05:19:04Z
2023-06-26T03:19:52Z,42.805,6.029,13.3021,4.60095,2470.74,2023-6-26T05:22:07Z
2023-06-26T03:22:55Z,42.805,6.029,13.3025,4.60099,2470.763,2023-6-26T05:25:10Z
2023-06-26T03:25:58Z,42.805,6.029,13.3022,4.60096,2470.763,2023-6-26T05:28:13Z
2023-06-26T03:29:01Z,42.805,6.029,13.3025,4.60092,2470.763,2023-6-26T05:31:16Z
2023-06-26T03:32:04Z,42.805,6.029,13.3022,4.60090,2470.763,2023-6-26T05:34:19Z
2023-06-26T03:35:07Z,42.805,6.029,13.3024,4.60092,2470.74,2023-6-26T05:37:22Z
2023-06-26T03:38:10Z,42.805,6.029,13.3021,4.60090,2470.693,2023-6-26T05:40:25Z
2023-06-26T03:41:14Z,42.805,6.029,13.3022,4.60089,2470.754,2023-6-26T05:43:29Z
2023-06-26T03:44:17Z,42.805,6.029,13.3022,4.60088,2470.74,2023-6-26T05:46:32Z
2023-06-26T03:47:20Z,42.805,6.029,13.3021,4.60087,2470.73,2023-6-26T05:49:35Z
2023-06-26T03:50:23Z,42.805,6.029,13.3023,4.60086,2470.717,2023-6-26T05:52:38Z
2023-06-26T03:53:26Z,42.805,6.029,13.3022,4.60087,2470.73,2023-6-26T05:55:41Z
2023-06-26T03:56:29Z,42.805,6.029,13.3020,4.60089,2470.74,2023-6-26T05:58:44Z
2023-06-26T03:59:32Z,42.805,6.029,13.3019,4.60087,2470.717,2023-6-26T06:01:47Z
2023-06-26T04:02:35Z,42.805,6.029,13.3021,4.60084,2470.717,2023-6-26T06:04:50Z
2023-06-26T04:05:38Z,42.805,6.029,13.3024,4.60087,2470.754,2023-6-26T06:07:53Z
2023-06-26T04:08:41Z,42.805,6.029,13.3020,4.60085,2470.754,2023-6-26T06:10:56Z
2023-06-26T04:11:44Z,42.805,6.029,13.3023,4.60084,2470.717,2023-6-26T06:13:59Z
2023-06-26T04:14:47Z,42.805,6.029,13.3021,4.60089,2470.717,2023-6-26T06:17:02Z
2023-06-26T04:17:51Z,42.805,6.029,13.3022,4.60084,2470.73,2023-6-26T06:20:06Z
2023-06-26T04:20:54Z,42.805,6.029,13.3023,4.60089,2470.73,2023-6-26T06:23:09Z
2023-06-26T04:23:57Z,42.805,6.029,13.3020,4.60086,2470.73,2023-6-26T06:26:12Z
2023-06-26T04:27:00Z,42.805,6.029,13.3024,4.60089,2470.693,2023-6-26T06:29:15Z
2023-06-26T04:30:03Z,42.805,6.029,13.3020,4.60087,2470.717,2023-6-26T06:32:18Z
2023-06-26T04:33:06Z,42.805,6.029,13.3021,4.60086,2470.763,2023-6-26T06:35:21Z
2023-06-26T04:36:09Z,42.805,6.029,13.3022,4.60087,2470.707,2023-6-26T06:38:24Z
2023-06-26T04:39:12Z,42.805,6.029,13.3021,4.60081,2470.73,2023-6-26T06:41:27Z
2023-06-26T04:42:15Z,42.805,6.029,13.3024,4.60085,2470.67,2023-6-26T06:44:30Z
2023-06-26T04:45:18Z,42.805,6.029,13.3021,4.60081,2470.73,2023-6-26T06:47:33Z
2023-06-26T04:48:21Z,42.805,6.029,13.3020,4.60086,2470.717,2023-6-26T06:50:36Z
2023-06-26T04:51:24Z,42.805,6.029,13.3019,4.60085,2470.693,2023-6-26T06:53:40Z
2023-06-26T04:54:28Z,42.805,6.029,13.3024,4.60084,2470.717,2023-6-26T06:56:43Z
2023-06-26T04:57:31Z,42.805,6.029,13.3020,4.60085,2470.717,2023-6-26T06:59:46Z
2023-06-26T05:00:34Z,42.805,6.029,13.3026,4.60084,2470.707,2023-6-26T07:02:49Z
2023-06-26T05:03:37Z,42.805,6.029,13.3021,4.60083,2470.693,2023-6-26T07:05:52Z
2023-06-26T05:06:40Z,42.805,6.029,13.3021,4.60084,2470.693,2023-6-26T07:08:55Z
2023-06-26T05:09:43Z,42.805,6.029,13.3024,4.60084,2470.693,2023-6-26T07:11:58Z
2023-06-26T05:12:46Z,42.805,6.029,13.3023,4.60084,2470.67,2023-6-26T07:15:01Z
2023-06-26T05:15:49Z,42.805,6.029,13.3021,4.60085,2470.67,2023-6-26T07:18:04Z
2023-06-26T05:18:52Z,42.805,6.029,13.3021,4.60082,2470.67,2023-6-26T07:21:07Z
2023-06-26T05:21:55Z,42.805,6.029,13.3021,4.60087,2470.67,2023-6-26T07:24:10Z
2023-06-26T05:24:58Z,42.805,6.029,13.3023,4.60085,2470.693,2023-6-26T07:27:13Z
2023-06-26T05:28:01Z,42.805,6.029,13.3023,4.60083,2470.684,2023-6-26T07:30:17Z
2023-06-26T05:31:05Z,42.805,6.029,13.3022,4.60084,2470.707,2023-6-26T07:33:20Z
2023-06-26T05:34:08Z,42.805,6.029,13.3019,4.60086,2470.67,2023-6-26T07:36:23Z
2023-06-26T05:37:11Z,42.805,6.029,13.3022,4.60084,2470.707,2023-6-26T07:39:26Z
2023-06-26T05:40:14Z,42.805,6.029,13.3022,4.60083,2470.707,2023-6-26T07:42:29Z
2023-06-26T05:43:17Z,42.805,6.029,13.3020,4.60082,2470.717,2023-6-26T07:45:32Z
2023-06-26T05:46:20Z,42.805,6.029,13.3026,4.60082,2470.717,2023-6-26T07:48:35Z
2023-06-26T05:49:23Z,42.805,6.029,13.3020,4.60081,2470.684,2023-6-26T07:51:38Z
2023-06-26T05:52:26Z,42.805,6.029,13.3021,4.60084,2470.646,2023-6-26T07:54:41Z
2023-06-26T05:55:29Z,42.805,6.029,13.3021,4.60082,2470.707,2023-6-26T07:57:44Z
2023-06-26T05:58:32Z,42.805,6.029,13.3020,4.60082,2470.624,2023-6-26T08:00:47Z
2023-06-26T06:01:35Z,42.805,6.029,13.3025,4.60085,2470.67,2023-6-26T08:03:50Z
2023-06-26T06:04:38Z,42.805,6.029,13.3022,4.60082,2470.661,2023-6-26T08:06:54Z
2023-06-26T06:07:42Z,42.805,6.029,13.3023,4.60083,2470.67,2023-6-26T08:09:57Z
2023-06-26T06:10:45Z,42.805,6.029,13.3022,4.60081,2470.693,2023-6-26T08:13:00Z
2023-06-26T06:13:48Z,42.805,6.029,13.3024,4.60081,2470.684,2023-6-26T08:16:03Z
2023-06-26T06:16:51Z,42.805,6.029,13.3024,4.60081,2470.67,2023-6-26T08:19:06Z
2023-06-26T06:19:54Z,42.805,6.029,13.3023,4.60081,2470.646,2023-6-26T08:22:09Z
2023-06-26T06:22:57Z,42.805,6.029,13.3025,4.60081,2470.684,2023-6-26T08:25:12Z
2023-06-26T06:26:00Z,42.805,6.029,13.3021,4.60081,2470.646,2023-6-26T08:28:15Z
2023-06-26T06:29:03Z,42.805,6.029,13.3022,4.60081,2470.67,2023-6-26T08:31:18Z
2023-06-26T06:32:06Z,42.805,6.029,13.3026,4.60084,2470.67,2023-6-26T08:34:21Z
2023-06-26T06:35:09Z,42.805,6.029,13.3023,4.60082,2470.693,2023-6-26T08:37:24Z
2023-06-26T06:38:12Z,42.805,6.029,13.3021,4.60082,2470.661,2023-6-26T08:40:27Z
2023-06-26T06:41:16Z,42.805,6.029,13.3021,4.60082,2470.67,2023-6-26T08:43:31Z
2023-06-26T06:44:19Z,42.805,6.029,13.3022,4.60081,2470.646,2023-6-26T08:46:34Z
2023-06-26T06:47:22Z,42.805,6.029,13.3025,4.60081,2470.67,2023-6-26T08:49:37Z
2023-06-26T06:50:25Z,42.805,6.029,13.3024,4.60080,2470.693,2023-6-26T08:52:40Z
2023-06-26T06:53:28Z,42.805,6.029,13.3024,4.60080,2470.624,2023-6-26T08:55:43Z
2023-06-26T06:56:31Z,42.805,6.029,13.3024,4.60081,2470.67,2023-6-26T08:58:46Z
2023-06-26T06:59:34Z,42.805,6.029,13.3021,4.60079,2470.646,2023-6-26T09:01:49Z
2023-06-26T07:02:37Z,42.805,6.029,13.3020,4.60081,2470.684,2023-6-26T09:04:52Z
2023-06-26T07:05:40Z,42.805,6.029,13.3021,4.60081,2470.67,2023-6-26T09:07:55Z
2023-06-26T07:08:43Z,42.805,6.029,13.3021,4.60081,2470.684,2023-6-26T09:10:58Z
2023-06-26T07:11:46Z,42.805,6.029,13.3020,4.60081,2470.646,2023-6-26T09:14:01Z
2023-06-26T07:14:49Z,42.805,6.029,13.3020,4.60081,2470.67,2023-6-26T09:17:04Z
2023-06-26T07:17:53Z,42.805,6.029,13.3026,4.60084,2470.67,2023-6-26T09:20:08Z
2023-06-26T07:20:56Z,42.805,6.029,13.3021,4.60081,2470.684,2023-6-26T09:23:11Z
2023-06-26T07:23:59Z,42.805,6.029,13.3025,4.60081,2470.661,2023-6-26T09:26:14Z
2023-06-26T07:27:02Z,42.805,6.029,13.3025,4.60081,2470.67,2023-6-26T09:29:17Z
2023-06-26T07:30:05Z,42.805,6.029,13.3024,4.60081,2470.67,2023-6-26T09:32:20Z
2023-06-26T07:33:08Z,42.805,6.029,13.3022,4.60081,2470.646,2023-6-26T09:35:23Z
2023-06-26T07:36:11Z,42.805,6.029,13.3024,4.60079,2470.67,2023-6-26T09:38:26Z
2023-06-26T07:39:14Z,42.805,6.029,13.3021,4.60081,2470.67,2023-6-26T09:41:29Z
2023-06-26T07:42:17Z,42.805,6.029,13.3021,4.60081,2470.67,2023-6-26T09:44:32Z
2023-06-26T07:45:20Z,42.805,6.029,13.3021,4.60081,2470.661,2023-6-26T09:47:35Z
2023-06-26T07:48:23Z,42.805,6.029,13.3019,4.60081,2470.707,2023-6-26T09:50:38Z
2023-06-26T07:51:26Z,42.805,6.029,13.3022,4.60080,2470.693,2023-6-26T09:53:41Z
2023-06-26T07:54:30Z,42.805,6.029,13.3022,4.60081,2470.646,2023-6-26T09:56:45Z
2023-06-26T07:57:33Z,42.805,6.029,13.3026,4.60084,2470.646,2023-6-26T09:59:48Z
2023-06-26T08:00:36Z,42.805,6.029,13.3021,4.60081,2470.646,2023-6-26T10:02:51Z
2023-06-26T08:03:39Z,42.805,6.029,13.3026,4.60080,2470.646,2023-6-26T10:05:54Z
2023-06-26T08:06:42Z,42.805,6.029,13.3019,4.60081,2470.646,2023-6-26T10:08:57Z
2023-06-26T08:09:45Z,42.805,6.029,13.3027,4.60083,2470.646,2023-6-26T10:12:00Z
2023-06-26T08:12:48Z,42.805,6.029,13.3022,4.60081,2470.646,2023-6-26T10:15:03Z
2023-06-26T08:15:51Z,42.805,6.029,13.3019,4.60079,2470.646,2023-6-26T10:18:06Z
2023-06-26T08:18:54Z,42.805,6.029,13.3023,4.60081,2470.624,2023-6-26T10:21:09Z
2023-06-26T08:21:57Z,42.805,6.029,13.3021,4.60085,2470.624,2023-6-26T10:24:12Z
2023-06-26T08:25:00Z,42.805,6.029,13.3022,4.60082,2470.661,2023-6-26T10:27:15Z
2023-06-26T08:28:03Z,42.805,6.029,13.3021,4.60081,2470.67,2023-6-26T10:30:19Z
2023-06-26T08:31:07Z,42.805,6.029,13.3022,4.60081,2470.646,2023-6-26T10:33:22Z
2023-06-26T08:34:10Z,42.805,6.029,13.3025,4.60081,2470.67,2023-6-26T10:36:25Z
2023-06-26T08:37:14Z,42.805,6.029,13.3021,4.60084,2470.6,2023-6-26T10:39:29Z
2023-06-26T08:40:17Z,42.805,6.029,13.3025,4.60084,2470.633,2023-6-26T10:42:32Z
2023-06-26T08:43:20Z,42.805,6.029,13.3021,4.60082,2470.661,2023-6-26T10:45:35Z
2023-06-26T08:46:23Z,42.805,6.029,13.3022,4.60082,2470.661,2023-6-26T10:48:38Z
2023-06-26T08:49:26Z,42.805,6.029,13.3023,4.60079,2470.684,2023-6-26T10:51:41Z
2023-06-26T08:52:29Z,42.805,6.029,13.3022,4.60081,2470.67,2023-6-26T10:54:44Z
2023-06-26T08:55:32Z,42.805,6.029,13.3021,4.60080,2470.67,2023-6-26T10:57:47Z
2023-06-26T08:58:35Z,42.805,6.029,13.3018,4.60080,2470.656,2023-6-26T11:00:50Z
2023-06-26T09:01:38Z,42.805,6.029,13.3022,4.60084,2470.646,2023-6-26T11:03:53Z
2023-06-26T09:04:41Z,42.805,6.029,13.3023,4.60080,2470.656,2023-6-26T11:06:56Z
2023-06-26T09:07:44Z,42.805,6.029,13.3024,4.60079,2470.684,2023-6-26T11:09:59Z
2023-06-26T09:10:47Z,42.805,6.029,13.3022,4.60081,2470.67,2023-6-26T11:13:03Z
2023-06-26T09:13:51Z,42.805,6.029,13.3024,4.60078,2470.684,2023-6-26T11:16:06Z
2023-06-26T09:16:54Z,42.805,6.029,13.3019,4.60079,2470.67,2023-6-26T11:19:09Z
2023-06-26T09:19:57Z,42.805,6.029,13.3021,4.60080,2470.67,2023-6-26T11:22:12Z
2023-06-26T09:23:00Z,42.805,6.029,13.3021,4.60080,2470.646,2023-6-26T11:25:15Z
2023-06-26T09:26:03Z,42.805,6.029,13.3021,4.60079,2470.661,2023-6-26T11:28:18Z
2023-06-26T09:29:06Z,42.805,6.029,13.3023,4.60081,2470.684,2023-6-26T11:31:21Z
2023-06-26T09:32:09Z,42.805,6.029,13.3019,4.60080,2470.684,2023-6-26T11:34:24Z
2023-06-26T09:35:12Z,42.805,6.029,13.3021,4.60079,2470.67,2023-6-26T11:37:27Z
2023-06-26T09:38:15Z,42.805,6.029,13.3024,4.60081,2470.67,2023-6-26T11:40:30Z
2023-06-26T09:41:18Z,42.805,6.029,13.3023,4.60079,2470.684,2023-6-26T11:43:33Z
2023-06-26T09:44:21Z,42.805,6.029,13.3025,4.60079,2470.656,2023-6-26T11:46:37Z
2023-06-26T09:47:25Z,42.805,6.029,13.3024,4.60079,2470.67,2023-6-26T11:49:40Z
2023-06-26T09:50:28Z,42.805,6.029,13.3025,4.60080,2470.646,2023-6-26T11:52:43Z
2023-06-26T09:53:31Z,42.805,6.029,13.3024,4.60081,2470.67,2023-6-26T11:55:46Z
2023-06-26T09:56:34Z,42.805,6.029,13.3026,4.60082,2470.67,2023-6-26T11:58:49Z
2023-06-26T09:59:37Z,42.805,6.029,13.3022,4.60081,2470.67,2023-6-26T12:01:52Z
2023-06-26T10:02:40Z,42.805,6.029,13.3024,4.60082,2470.646,2023-6-26T12:04:55Z
2023-06-26T10:05:43Z,42.805,6.029,13.3023,4.60081,2470.67,2023-6-26T12:07:58Z
2023-06-26T10:08:46Z,42.805,6.029,13.3024,4.60082,2470.67,2023-6-26T12:11:01Z
2023-06-26T10:11:49Z,42.805,6.029,13.3022,4.60082,2470.646,2023-6-26T12:14:04Z
2023-06-26T10:14:52Z,42.805,6.029,13.3025,4.60081,2470.684,2023-6-26T12:17:07Z
2023-06-26T10:17:55Z,42.805,6.029,13.3024,4.60081,2470.646,2023-6-26T12:20:10Z
2023-06-26T10:20:58Z,42.805,6.029,13.3019,4.60081,2470.707,2023-6-26T12:23:14Z
2023-06-26T10:24:02Z,42.805,6.029,13.3024,4.60081,2470.693,2023-6-26T12:26:17Z
2023-06-26T10:27:05Z,42.805,6.029,13.3024,4.60079,2470.693,2023-6-26T12:29:20Z
2023-06-26T10:30:10Z,42.805,6.029,13.3020,4.60080,2470.693,2023-6-26T12:32:25Z
2023-06-26T10:33:13Z,42.805,6.029,13.3022,4.60080,2470.67,2023-6-26T12:35:28Z
2023-06-26T10:36:16Z,42.805,6.029,13.3023,4.60081,2470.67,2023-6-26T12:38:31Z
2023-06-26T10:39:19Z,42.805,6.029,13.3023,4.60082,2470.707,2023-6-26T12:41:34Z
2023-06-26T10:42:22Z,42.805,6.029,13.3024,4.60079,2470.693,2023-6-26T12:44:37Z
2023-06-26T10:45:25Z,42.805,6.029,13.3022,4.60082,2470.707,2023-6-26T12:47:40Z
2023-06-26T10:48:29Z,42.805,6.029,13.3022,4.60080,2470.693,2023-6-26T12:50:44Z
2023-06-26T10:51:32Z,42.805,6.029,13.3024,4.60080,2470.693,2023-6-26T12:53:47Z
2023-06-26T10:54:35Z,42.805,6.029,13.3024,4.60080,2470.707,2023-6-26T12:56:50Z
2023-06-26T10:57:38Z,42.805,6.029,13.3019,4.60079,2470.693,2023-6-26T12:59:53Z
2023-06-26T11:00:41Z,42.805,6.029,13.3024,4.60080,2470.693,2023-6-26T13:02:56Z
2023-06-26T11:03:44Z,42.805,6.029,13.3021,4.60080,2470.707,2023-6-26T13:05:59Z
2023-06-26T11:06:47Z,42.805,6.029,13.3021,4.60082,2470.717,2023-6-26T13:09:02Z
2023-06-26T11:09:50Z,42.805,6.029,13.3022,4.60082,2470.693,2023-6-26T13:12:05Z
2023-06-26T11:12:53Z,42.805,6.029,13.3021,4.60082,2470.717,2023-6-26T13:15:08Z
2023-06-26T11:15:56Z,42.805,6.029,13.3022,4.60080,2470.707,2023-6-26T13:18:11Z
2023-06-26T11:18:59Z,42.805,6.029,13.3021,4.60080,2470.707,2023-6-26T13:21:14Z
2023-06-26T11:22:02Z,42.805,6.029,13.3021,4.60080,2470.693,2023-6-26T13:24:18Z
2023-06-26T11:25:06Z,42.805,6.029,13.3019,4.60084,2470.717,2023-6-26T13:27:21Z
2023-06-26T11:28:09Z,42.805,6.029,13.3021,4.60079,2470.693,2023-6-26T13:30:24Z
2023-06-26T11:31:12Z,42.805,6.029,13.3024,4.60084,2470.717,2023-6-26T13:33:27Z
2023-06-26T11:34:15Z,42.805,6.029,13.3024,4.60079,2470.73,2023-6-26T13:36:30Z
2023-06-26T11:37:18Z,42.805,6.029,13.3021,4.60079,2470.684,2023-6-26T13:39:33Z
2023-06-26T11:40:21Z,42.805,6.029,13.3021,4.60080,2470.74,2023-6-26T13:42:36Z
2023-06-26T11:43:24Z,42.805,6.029,13.3024,4.60079,2470.67,2023-6-26T13:45:39Z
2023-06-26T11:46:27Z,42.805,6.029,13.3019,4.60080,2470.73,2023-6-26T13:48:42Z
2023-06-26T11:49:30Z,42.805,6.029,13.3022,4.60083,2470.717,2023-6-26T13:51:45Z
2023-06-26T11:52:33Z,42.805,6.029,13.3024,4.60080,2470.67,2023-6-26T13:54:48Z
2023-06-26T11:55:36Z,42.805,6.029,13.3024,4.60081,2470.707,2023-6-26T13:57:51Z
2023-06-26T11:58:39Z,42.805,6.029,13.3023,4.60081,2470.693,2023-6-26T14:00:55Z
2023-06-26T12:01:43Z,42.805,6.029,13.3024,4.60080,2470.717,2023-6-26T14:03:58Z
2023-06-26T12:04:46Z,42.805,6.029,13.3023,4.60079,2470.693,2023-6-26T14:07:01Z
2023-06-26T12:07:49Z,42.805,6.029,13.3024,4.60082,2470.67,2023-6-26T14:10:04Z
2023-06-26T12:10:52Z,42.805,6.029,13.3026,4.60081,2470.717,2023-6-26T14:13:07Z
2023-06-26T12:13:55Z,42.805,6.029,13.3017,4.60081,2470.693,2023-6-26T14:16:10Z
2023-06-26T12:16:58Z,42.805,6.029,13.3022,4.60081,2470.717,2023-6-26T14:19:13Z
2023-06-26T12:20:01Z,42.805,6.029,13.3025,4.60081,2470.73,2023-6-26T14:22:16Z
2023-06-26T12:23:04Z,42.805,6.029,13.3022,4.60087,2470.717,2023-6-26T14:25:19Z
2023-06-26T12:26:07Z,42.805,6.029,13.3024,4.60085,2470.693,2023-6-26T14:28:22Z
2023-06-26T12:29:10Z,42.805,6.029,13.3025,4.60081,2470.693,2023-6-26T14:31:25Z
2023-06-26T12:32:13Z,42.805,6.029,13.3022,4.60080,2470.777,2023-6-26T14:34:28Z
2023-06-26T12:35:17Z,42.805,6.029,13.3023,4.60080,2470.717,2023-6-26T14:37:32Z
2023-06-26T12:38:20Z,42.805,6.029,13.3023,4.60081,2470.693,2023-6-26T14:40:35Z
2023-06-26T12:41:23Z,42.805,6.029,13.3026,4.60082,2470.693,2023-6-26T14:43:38Z
2023-06-26T12:44:26Z,42.805,6.029,13.3019,4.60083,2470.693,2023-6-26T14:46:41Z
2023-06-26T12:47:29Z,42.805,6.029,13.3023,4.60080,2470.693,2023-6-26T14:49:44Z
2023-06-26T12:50:32Z,42.805,6.029,13.3024,4.60082,2470.693,2023-6-26T14:52:47Z
2023-06-26T12:53:35Z,42.805,6.029,13.3024,4.60081,2470.717,2023-6-26T14:55:50Z
2023-06-26T12:56:38Z,42.805,6.029,13.3026,4.60082,2470.684,2023-6-26T14:58:53Z
2023-06-26T12:59:41Z,42.805,6.029,13.3024,4.60081,2470.67,2023-6-26T15:01:56Z
2023-06-26T13:02:44Z,42.805,6.029,13.3026,4.60088,2470.703,2023-6-26T15:04:59Z
2023-06-26T13:05:47Z,42.805,6.029,13.3023,4.60082,2470.693,2023-6-26T15:08:02Z
2023-06-26T13:08:50Z,42.805,6.029,13.3021,4.60080,2470.707,2023-6-26T15:11:06Z
2023-06-26T13:11:54Z,42.805,6.029,13.3020,4.60080,2470.73,2023-6-26T15:14:09Z
2023-06-26T13:14:57Z,42.805,6.029,13.3019,4.60080,2470.707,2023-6-26T15:17:12Z
2023-06-26T13:18:00Z,42.805,6.029,13.3026,4.60079,2470.717,2023-6-26T15:20:15Z
2023-06-26T13:21:03Z,42.805,6.029,13.3023,4.60083,2470.717,2023-6-26T15:23:18Z
2023-06-26T13:24:06Z,42.805,6.029,13.3024,4.60081,2470.693,2023-6-26T15:26:21Z
2023-06-26T13:27:09Z,42.805,6.029,13.3024,4.60084,2470.73,2023-6-26T15:29:24Z
2023-06-26T13:30:12Z,42.805,6.029,13.3024,4.60079,2470.707,2023-6-26T15:32:27Z
2023-06-26T13:33:15Z,42.805,6.029,13.3025,4.60081,2470.703,2023-6-26T15:35:30Z
2023-06-26T13:36:18Z,42.805,6.029,13.3023,4.60081,2470.693,2023-6-26T15:38:33Z
2023-06-26T13:39:21Z,42.805,6.029,13.3024,4.60083,2470.684,2023-6-26T15:41:36Z
2023-06-26T13:42:24Z,42.805,6.029,13.3024,4.60081,2470.73,2023-6-26T15:44:39Z
2023-06-26T13:45:27Z,42.805,6.029,13.3021,4.60087,2470.684,2023-6-26T15:47:43Z
2023-06-26T13:48:31Z,42.805,6.029,13.3026,4.60091,2470.717,2023-6-26T15:50:46Z
2023-06-26T13:51:34Z,42.805,6.029,13.3025,4.60084,2470.693,2023-6-26T15:53:49Z
2023-06-26T13:54:37Z,42.805,6.029,13.3029,4.60083,2470.717,2023-6-26T15:56:52Z
2023-06-26T13:57:40Z,42.805,6.029,13.3023,4.60081,2470.717,2023-6-26T15:59:55Z
2023-06-26T14:00:43Z,42.805,6.029,13.3020,4.60084,2470.717,2023-6-26T16:02:58Z
2023-06-26T14:03:46Z,42.805,6.029,13.3030,4.60081,2470.73,2023-6-26T16:06:01Z
2023-06-26T14:06:49Z,42.805,6.029,13.3024,4.60086,2470.717,2023-6-26T16:09:04Z
2023-06-26T14:09:52Z,42.805,6.029,13.3021,4.60081,2470.707,2023-6-26T16:12:07Z
2023-06-26T14:12:55Z,42.805,6.029,13.3028,4.60082,2470.707,2023-6-26T16:15:10Z
2023-06-26T14:15:58Z,42.805,6.029,13.3029,4.60081,2470.717,2023-6-26T16:18:13Z
2023-06-26T14:19:01Z,42.805,6.029,13.3021,4.60081,2470.717,2023-6-26T16:21:17Z
2023-06-26T14:22:05Z,42.805,6.029,13.3019,4.60084,2470.693,2023-6-26T16:24:20Z
2023-06-26T14:25:08Z,42.805,6.029,13.3028,4.60080,2470.693,2023-6-26T16:27:23Z
2023-06-26T14:28:11Z,42.805,6.029,13.3021,4.60079,2470.717,2023-6-26T16:30:26Z
2023-06-26T14:31:14Z,42.805,6.029,13.3021,4.60079,2470.693,2023-6-26T16:33:29Z
2023-06-26T14:34:17Z,42.805,6.029,13.3026,4.60081,2470.693,2023-6-26T16:36:32Z
2023-06-26T14:37:20Z,42.805,6.029,13.3024,4.60081,2470.693,2023-6-26T16:39:35Z
2023-06-26T14:40:23Z,42.805,6.029,13.3027,4.60079,2470.67,2023-6-26T16:42:38Z
2023-06-26T14:43:26Z,42.805,6.029,13.3022,4.60081,2470.717,2023-6-26T16:45:41Z
2023-06-26T14:46:29Z,42.805,6.029,13.3026,4.60080,2470.707,2023-6-26T16:48:44Z
2023-06-26T14:49:32Z,42.805,6.029,13.3021,4.60083,2470.67,2023-6-26T16:51:47Z
2023-06-26T14:52:35Z,42.805,6.029,13.3033,4.60082,2470.693,2023-6-26T16:54:50Z
2023-06-26T14:55:38Z,42.805,6.029,13.3023,4.60083,2470.73,2023-6-26T16:57:54Z
2023-06-26T14:58:42Z,42.805,6.029,13.3023,4.60084,2470.67,2023-6-26T17:00:57Z
2023-06-26T15:01:45Z,42.805,6.029,13.3026,4.60083,2470.693,2023-6-26T17:04:00Z
2023-06-26T15:04:48Z,42.805,6.029,13.3034,4.60082,2470.693,2023-6-26T17:07:03Z
2023-06-26T15:07:51Z,42.805,6.029,13.3021,4.60085,2470.707,2023-6-26T17:10:06Z
2023-06-26T15:10:54Z,42.805,6.029,13.3020,4.60082,2470.717,2023-6-26T17:13:09Z
2023-06-26T15:13:57Z,42.805,6.029,13.3020,4.60084,2470.693,2023-6-26T17:16:12Z